| time (UTC) | temp F | wind direction | speed knots | gust knots | rain 1hr in | rain 24hr in | rain mn in | humidity % | barometer mb |
| 20260903074548 | 54 | 122 | 0.9 | 2.6 | 0.00 | 0.00 | 0.00 | 72 | 1008.1 |
| 20260903074036 | 53 | 115 | 0.9 | 1.7 | 0.00 | 0.00 | 0.00 | 72 | 1008.0 |
| 20260903073536 | 52 | 177 | 0.0 | 1.7 | 0.00 | 0.00 | 0.00 | 75 | 1008.0 |
| 20260903073112 | 51 | 167 | 0.0 | 0.0 | 0.00 | 0.00 | 0.00 | 75 | 1008.2 |
| 20260903072535 | 51 | 0 | 0.0 | 0.9 | 0.00 | 0.00 | 0.00 | 76 | 1008.2 |
| 20260903072036 | 50 | 0 | 0.0 | 1.7 | 0.00 | 0.00 | 0.00 | 76 | 1008.2 |
| 20260903071551 | 49 | 0 | 0.9 | 2.6 | 0.00 | 0.00 | 0.00 | 77 | 1008.2 |
| 20260903071034 | 49 | 127 | 0.9 | 2.6 | 0.00 | 0.00 | 0.00 | 77 | 1008.2 |
| 20260903070538 | 48 | 104 | 1.7 | 2.6 | 0.00 | 0.00 | 0.00 | 79 | 1008.2 |
| 20260903070048 | 48 | 129 | 0.9 | 2.6 | 0.00 | 0.00 | 0.00 | 81 | 1008.3 |
| 20260903065535 | 47 | 173 | 0.0 | 1.7 | 0.00 | 0.00 | 0.00 | 82 | 1008.4 |
| 20260903065035 | 47 | 0 | 0.9 | 2.6 | 0.00 | 0.00 | 0.00 | 82 | 1008.5 |
| 20260903064554 | 46 | 228 | 0.0 | 2.6 | 0.00 | 0.00 | 0.00 | 83 | 1008.3 |
| 20260903064034 | 46 | 0 | 0.0 | 1.7 | 0.00 | 0.00 | 0.00 | 85 | 1008.3 |
| 20260903063535 | 45 | 0 | 0.0 | 1.7 | 0.00 | 0.00 | 0.00 | 86 | 1008.3 |
| 20260903063104 | 44 | 145 | 0.0 | 0.9 | 0.00 | 0.00 | 0.00 | 87 | 1008.5 |
| 20260903062531 | 43 | 0 | 0.0 | 0.0 | 0.00 | 0.00 | 0.00 | 88 | 1008.5 |
| 20260903062035 | 43 | 0 | 0.0 | 0.0 | 0.00 | 0.00 | 0.00 | 88 | 1008.7 |
| 20260903061552 | 43 | 0 | 0.0 | 0.0 | 0.00 | 0.00 | 0.00 | 88 | 1008.6 |
| 20260903061034 | 43 | 0 | 0.0 | 0.0 | 0.00 | 0.00 | 0.00 | 88 | 1008.6 |
| 20260903060535 | 42 | 0 | 0.0 | 0.9 | 0.00 | 0.00 | 0.00 | 87 | 1008.6 |
| 20260903060049 | 42 | 0 | 0.0 | 0.9 | 0.00 | 0.00 | 0.00 | 87 | 1008.7 |
| 20260903055536 | 42 | 0 | 0.0 | 0.9 | 0.00 | 0.00 | 0.00 | 86 | 1008.7 |
| 20260903055034 | 42 | 0 | 0.0 | 1.7 | 0.00 | 0.00 | 0.00 | 86 | 1008.7 |
| 20260903054553 | 42 | 0 | 0.0 | 1.7 | 0.00 | 0.00 | 0.00 | 86 | 1008.7 |
| 20260903054037 | 42 | 213 | 0.0 | 0.9 | 0.00 | 0.00 | 0.00 | 86 | 1008.7 |
| 20260903053536 | 41 | 0 | 0.0 | 0.9 | 0.00 | 0.00 | 0.00 | 86 | 1008.8 |
| 20260903053049 | 41 | 153 | 0.0 | 0.9 | 0.00 | 0.00 | 0.00 | 87 | 1008.8 |
| 20260903052535 | 41 | 0 | 0.0 | 0.9 | 0.00 | 0.00 | 0.00 | 87 | 1008.8 |
| 20260903052035 | 41 | 0 | 0.0 | 1.7 | 0.00 | 0.00 | 0.00 | 87 | 1008.9 |
| 20260903051546 | 41 | 0 | 0.0 | 1.7 | 0.00 | 0.00 | 0.00 | 87 | 1008.8 |
| 20260903051038 | 40 | 0 | 0.0 | 1.7 | 0.00 | 0.00 | 0.00 | 88 | 1008.8 |
| 20260903050537 | 40 | 0 | 0.0 | 0.0 | 0.00 | 0.00 | 0.00 | 88 | 1008.8 |
| 20260903050055 | 40 | 0 | 0.0 | 0.0 | 0.00 | 0.00 | 0.00 | 87 | 1008.8 |
| 20260903045535 | 40 | 0 | 0.0 | 0.0 | 0.00 | 0.00 | 0.00 | 87 | 1008.8 |
| 20260903045037 | 41 | 0 | 0.0 | 0.9 | 0.00 | 0.00 | 0.00 | 88 | 1008.9 |
| 20260903044549 | 40 | 0 | 0.0 | 0.9 | 0.00 | 0.00 | 0.00 | 88 | 1008.8 |
| 20260903044037 | 40 | 0 | 0.0 | 0.0 | 0.00 | 0.00 | 0.00 | 88 | 1008.8 |
| 20260903043534 | 40 | 0 | 0.0 | 0.9 | 0.00 | 0.00 | 0.00 | 88 | 1008.8 |
| 20260903043101 | 40 | 0 | 0.0 | 1.7 | 0.00 | 0.00 | 0.00 | 88 | 1008.7 |
| 20260903042535 | 40 | 92 | 0.9 | 1.7 | 0.00 | 0.00 | 0.00 | 88 | 1008.7 |
| 20260903042035 | 40 | 0 | 0.0 | 1.7 | 0.00 | 0.00 | 0.00 | 87 | 1008.8 |
| 20260903041555 | 40 | 0 | 0.0 | 0.9 | 0.00 | 0.00 | 0.00 | 87 | 1008.9 |
| 20260903041034 | 40 | 0 | 0.0 | 1.7 | 0.00 | 0.00 | 0.00 | 86 | 1008.8 |
| 20260903040534 | 40 | 113 | 0.0 | 1.7 | 0.00 | 0.00 | 0.00 | 86 | 1009.0 |
| 20260903040052 | 41 | 103 | 0.0 | 1.7 | 0.00 | 0.00 | 0.00 | 85 | 1008.9 |
| 20260903035535 | 41 | 286 | 0.0 | 1.7 | 0.00 | 0.00 | 0.00 | 84 | 1008.7 |
| 20260903035035 | 41 | 0 | 0.0 | 0.9 | 0.00 | 0.00 | 0.00 | 83 | 1008.8 |
| 20260903034559 | 41 | 0 | 0.0 | 1.7 | 0.00 | 0.00 | 0.00 | 84 | 1008.8 |
| 20260903034035 | 41 | 97 | 0.9 | 1.7 | 0.00 | 0.00 | 0.00 | 84 | 1008.8 |
| 20260903033534 | 41 | 0 | 0.0 | 0.9 | 0.00 | 0.00 | 0.00 | 84 | 1008.8 |
| 20260903033058 | 42 | 0 | 0.0 | 1.7 | 0.00 | 0.00 | 0.00 | 84 | 1008.6 |
| 20260903032535 | 42 | 0 | 0.0 | 1.7 | 0.00 | 0.00 | 0.00 | 86 | 1008.6 |
| 20260903032037 | 41 | 0 | 0.0 | 0.9 | 0.00 | 0.00 | 0.00 | 86 | 1008.7 |
| 20260903031554 | 42 | 0 | 0.0 | 2.6 | 0.00 | 0.00 | 0.00 | 85 | 1008.7 |
| 20260903031034 | 42 | 0 | 0.0 | 2.6 | 0.00 | 0.00 | 0.00 | 85 | 1008.8 |
| 20260903030533 | 42 | 88 | 0.9 | 1.7 | 0.00 | 0.00 | 0.00 | 85 | 1008.8 |
| 20260903030103 | 41 | 0 | 0.9 | 1.7 | 0.00 | 0.00 | 0.00 | 84 | 1008.9 |
| 20260903025535 | 42 | 293 | 0.9 | 1.7 | 0.00 | 0.00 | 0.00 | 82 | 1008.8 |
| 20260903025035 | 42 | 0 | 0.0 | 0.9 | 0.00 | 0.00 | 0.00 | 82 | 1008.8 |
| 20260903024554 | 42 | 328 | 0.0 | 0.9 | 0.00 | 0.00 | 0.00 | 82 | 1008.7 |
| 20260903024034 | 42 | 0 | 0.0 | 0.0 | 0.00 | 0.00 | 0.00 | 83 | 1008.8 |
| 20260903023535 | 43 | 0 | 0.0 | 0.9 | 0.00 | 0.00 | 0.00 | 82 | 1008.8 |
| 20260903023107 | 43 | 0 | 0.0 | 0.9 | 0.00 | 0.00 | 0.00 | 83 | 1008.9 |
| 20260903022536 | 43 | 0 | 0.0 | 0.0 | 0.00 | 0.00 | 0.00 | 83 | 1008.9 |
| 20260903022038 | 43 | 0 | 0.0 | 0.9 | 0.00 | 0.00 | 0.00 | 82 | 1009.0 |
| 20260903021556 | 43 | 0 | 0.0 | 0.9 | 0.00 | 0.00 | 0.00 | 81 | 1009.0 |
| 20260903021035 | 44 | 0 | 0.0 | 0.9 | 0.00 | 0.00 | 0.00 | 81 | 1008.9 |
| 20260903020534 | 43 | 0 | 0.0 | 0.9 | 0.00 | 0.00 | 0.00 | 81 | 1008.9 |
| 20260903020054 | 43 | 0 | 0.0 | 0.9 | 0.00 | 0.00 | 0.00 | 81 | 1009.0 |
| 20260903015534 | 43 | 0 | 0.0 | 0.9 | 0.00 | 0.00 | 0.00 | 80 | 1009.1 |
| 20260903015035 | 43 | 0 | 0.0 | 0.9 | 0.00 | 0.00 | 0.00 | 80 | 1009.0 |
| 20260903014555 | 43 | 0 | 0.0 | 0.9 | 0.00 | 0.00 | 0.00 | 79 | 1009.1 |
| 20260903014038 | 44 | 0 | 0.0 | 0.9 | 0.00 | 0.00 | 0.00 | 78 | 1009.1 |
| 20260903013538 | 44 | 0 | 0.0 | 0.9 | 0.00 | 0.00 | 0.00 | 78 | 1009.0 |
| 20260903013050 | 45 | 0 | 0.0 | 0.0 | 0.00 | 0.00 | 0.00 | 77 | 1009.1 |
| 20260903012539 | 45 | 0 | 0.0 | 0.0 | 0.00 | 0.00 | 0.00 | 76 | 1009.0 |
| 20260903012034 | 45 | 0 | 0.0 | 0.0 | 0.00 | 0.00 | 0.00 | 76 | 1009.1 |
| 20260903011545 | 45 | 0 | 0.0 | 0.9 | 0.00 | 0.00 | 0.00 | 76 | 1009.0 |
| 20260903011035 | 45 | 0 | 0.0 | 0.9 | 0.00 | 0.00 | 0.00 | 76 | 1009.2 |
| 20260903010534 | 46 | 0 | 0.0 | 1.7 | 0.00 | 0.00 | 0.00 | 75 | 1009.2 |
| 20260903010051 | 46 | 0 | 0.9 | 1.7 | 0.00 | 0.00 | 0.00 | 75 | 1009.2 |
| 20260903005538 | 46 | 105 | 0.0 | 0.9 | 0.00 | 0.00 | 0.00 | 75 | 1009.1 |
| 20260903005036 | 46 | 0 | 0.0 | 0.9 | 0.00 | 0.00 | 0.00 | 75 | 1009.3 |
| 20260903004552 | 46 | 336 | 0.0 | 0.9 | 0.00 | 0.00 | 0.00 | 75 | 1009.3 |
| 20260903004036 | 46 | 0 | 0.0 | 2.6 | 0.00 | 0.00 | 0.00 | 74 | 1009.2 |
| 20260903003537 | 47 | 0 | 0.0 | 3.5 | 0.00 | 0.00 | 0.00 | 72 | 1009.2 |
| 20260903003055 | 47 | 227 | 0.9 | 3.5 | 0.00 | 0.00 | 0.00 | 72 | 1009.3 |
| 20260903002535 | 48 | 0 | 0.9 | 3.5 | 0.00 | 0.00 | 0.00 | 71 | 1009.1 |
| 20260903002035 | 48 | 0 | 0.0 | 1.7 | 0.00 | 0.00 | 0.00 | 71 | 1009.2 |
| 20260903001550 | 47 | 0 | 0.0 | 1.7 | 0.00 | 0.00 | 0.00 | 72 | 1009.3 |
| 20260903001035 | 48 | 0 | 0.0 | 1.7 | 0.00 | 0.00 | 0.00 | 70 | 1009.1 |
| 20260903000535 | 48 | 131 | 0.0 | 1.7 | 0.00 | 0.00 | 0.00 | 69 | 1009.1 |
| 20260903000057 | 48 | 0 | 0.0 | 1.7 | 0.00 | 0.00 | 0.00 | 69 | 1009.0 |
| 20260902235535 | 49 | 248 | 0.0 | 4.3 | 0.00 | 0.00 | 0.00 | 67 | 1009.1 |
| 20260902235035 | 49 | 115 | 0.9 | 6.1 | 0.00 | 0.00 | 0.00 | 66 | 1009.1 |
| 20260902234548 | 49 | 88 | 0.9 | 6.1 | 0.00 | 0.00 | 0.00 | 67 | 1008.9 |
| 20260902234034 | 49 | 319 | 3.5 | 6.1 | 0.00 | 0.00 | 0.00 | 67 | 1008.9 |
| 20260902233534 | 49 | 231 | 0.9 | 5.2 | 0.00 | 0.00 | 0.00 | 67 | 1009.0 |
| 20260902233101 | 48 | 0 | 0.9 | 3.5 | 0.00 | 0.00 | 0.00 | 69 | 1008.9 |
| 20260902232534 | 48 | 0 | 0.9 | 6.1 | 0.00 | 0.00 | 0.00 | 69 | 1008.9 |
| 20260902232035 | 48 | 295 | 2.6 | 6.1 | 0.00 | 0.00 | 0.00 | 69 | 1008.9 |
| 20260902231549 | 49 | 207 | 0.9 | 7.0 | 0.00 | 0.00 | 0.00 | 68 | 1009.0 |
| 20260902231035 | 50 | 245 | 3.5 | 7.0 | 0.00 | 0.00 | 0.00 | 65 | 1009.0 |
| 20260902230537 | 51 | 282 | 3.5 | 6.1 | 0.00 | 0.00 | 0.00 | 63 | 1009.1 |
| 20260902230104 | 50 | 250 | 2.6 | 6.1 | 0.00 | 0.00 | 0.00 | 64 | 1009.1 |
| 20260902225536 | 50 | 245 | 3.5 | 5.2 | 0.00 | 0.00 | 0.00 | 66 | 1009.1 |
| 20260902225123 | 49 | 311 | 1.7 | 4.3 | 0.00 | 0.00 | 0.00 | 67 | 1009.2 |
| 20260902224556 | 49 | 323 | 0.9 | 1.7 | 0.00 | 0.00 | 0.00 | 67 | 1009.2 |
| 20260902224034 | 50 | 283 | 0.9 | 1.7 | 0.00 | 0.00 | 0.00 | 66 | 1009.3 |
| 20260902223534 | 51 | 8 | 0.0 | 4.3 | 0.00 | 0.00 | 0.00 | 65 | 1009.3 |
| 20260902223103 | 51 | 0 | 0.0 | 4.3 | 0.00 | 0.00 | 0.00 | 63 | 1009.2 |
| 20260902222534 | 52 | 292 | 1.7 | 4.3 | 0.00 | 0.00 | 0.00 | 63 | 1009.3 |
| 20260902222034 | 52 | 82 | 0.9 | 3.5 | 0.00 | 0.00 | 0.00 | 62 | 1009.3 |
| 20260902221556 | 52 | 271 | 0.0 | 18.2 | 0.00 | 0.00 | 0.00 | 61 | 1009.3 |
| 20260902221036 | 52 | 231 | 2.6 | 18.2 | 0.00 | 0.00 | 0.00 | 61 | 1009.2 |
| 20260902220533 | 51 | 221 | 1.7 | 7.0 | 0.00 | 0.00 | 0.00 | 62 | 1009.2 |
| 20260902220054 | 51 | 203 | 0.0 | 4.3 | 0.00 | 0.00 | 0.00 | 63 | 1009.2 |
| 20260902215531 | 51 | 212 | 2.6 | 6.1 | 0.00 | 0.00 | 0.00 | 63 | 1009.1 |
| 20260902215032 | 51 | 246 | 2.6 | 6.1 | 0.00 | 0.00 | 0.00 | 62 | 1009.1 |
| 20260902214549 | 51 | 255 | 2.6 | 5.2 | 0.00 | 0.00 | 0.00 | 62 | 1009.1 |
| 20260902214032 | 51 | 324 | 2.6 | 6.1 | 0.00 | 0.00 | 0.00 | 62 | 1009.0 |
| 20260902213534 | 51 | 0 | 0.0 | 6.1 | 0.00 | 0.00 | 0.00 | 62 | 1009.1 |
| 20260902213045 | 51 | 281 | 3.5 | 6.1 | 0.00 | 0.00 | 0.00 | 63 | 1009.2 |
| 20260902212533 | 51 | 0 | 0.0 | 3.5 | 0.00 | 0.00 | 0.00 | 63 | 1009.1 |
| 20260902212033 | 52 | 0 | 0.9 | 3.5 | 0.00 | 0.00 | 0.00 | 62 | 1009.1 |
| 20260902211555 | 52 | 82 | 0.9 | 7.0 | 0.00 | 0.00 | 0.00 | 63 | 1009.0 |
| 20260902211032 | 52 | 95 | 1.7 | 7.0 | 0.00 | 0.00 | 0.00 | 63 | 1009.0 |
| 20260902210532 | 51 | 118 | 3.5 | 7.0 | 0.00 | 0.00 | 0.00 | 64 | 1009.0 |
| 20260902210048 | 51 | 1 | 0.9 | 5.2 | 0.00 | 0.00 | 0.00 | 66 | 1008.9 |
| 20260902205531 | 52 | 80 | 1.7 | 5.2 | 0.00 | 0.00 | 0.00 | 63 | 1008.8 |
| 20260902205035 | 53 | 87 | 0.0 | 7.8 | 0.00 | 0.00 | 0.00 | 61 | 1008.8 |
| 20260902204621 | 53 | 18 | 3.5 | 7.8 | 0.00 | 0.00 | 0.00 | 60 | 1008.8 |
| 20260902204034 | 52 | 309 | 0.9 | 3.5 | 0.00 | 0.00 | 0.00 | 61 | 1008.9 |
| 20260902203534 | 53 | 280 | 0.9 | 5.2 | 0.00 | 0.00 | 0.00 | 60 | 1009.1 |
| 20260902203055 | 53 | 355 | 0.0 | 5.2 | 0.00 | 0.00 | 0.00 | 62 | 1009.2 |
| 20260902202533 | 54 | 0 | 1.7 | 5.2 | 0.00 | 0.00 | 0.00 | 59 | 1009.2 |
| 20260902202032 | 53 | 0 | 0.0 | 1.7 | 0.00 | 0.00 | 0.00 | 63 | 1009.0 |
| 20260902201550 | 53 | 0 | 0.0 | 1.7 | 0.00 | 0.00 | 0.00 | 64 | 1008.8 |
| 20260902201032 | 53 | 290 | 0.0 | 1.7 | 0.00 | 0.00 | 0.00 | 62 | 1008.7 |
| 20260902200532 | 53 | 252 | 0.0 | 1.7 | 0.00 | 0.00 | 0.00 | 63 | 1008.8 |
| 20260902200046 | 54 | 108 | 0.0 | 1.7 | 0.00 | 0.00 | 0.00 | 61 | 1008.9 |
| 20260902195531 | 55 | 290 | 0.0 | 5.2 | 0.00 | 0.00 | 0.00 | 61 | 1009.0 |
| 20260902195034 | 55 | 89 | 0.9 | 5.2 | 0.00 | 0.00 | 0.00 | 59 | 1008.9 |
| 20260902194555 | 55 | 18 | 1.7 | 7.0 | 0.00 | 0.00 | 0.00 | 59 | 1008.9 |
| 20260902194032 | 55 | 343 | 2.6 | 8.7 | 0.00 | 0.00 | 0.00 | 59 | 1008.8 |
| 20260902193532 | 56 | 3 | 2.6 | 8.7 | 0.00 | 0.00 | 0.00 | 58 | 1008.9 |
| 20260902193049 | 56 | 309 | 1.7 | 9.6 | 0.00 | 0.00 | 0.00 | 57 | 1008.7 |
| 20260902192535 | 57 | 27 | 1.7 | 9.6 | 0.00 | 0.00 | 0.00 | 56 | 1008.5 |
| 20260902192035 | 57 | 321 | 3.5 | 9.6 | 0.00 | 0.00 | 0.00 | 56 | 1008.6 |
| 20260902191546 | 57 | 257 | 3.5 | 9.6 | 0.00 | 0.00 | 0.00 | 56 | 1008.5 |
| 20260902191035 | 57 | 301 | 4.3 | 12.2 | 0.00 | 0.00 | 0.00 | 55 | 1008.5 |
| 20260902190532 | 58 | 264 | 6.1 | 12.2 | 0.00 | 0.00 | 0.00 | 55 | 1008.5 |
| 20260902190100 | 58 | 285 | 7.0 | 12.2 | 0.00 | 0.00 | 0.00 | 55 | 1008.5 |
| 20260902185532 | 59 | 259 | 7.0 | 10.4 | 0.00 | 0.00 | 0.00 | 54 | 1008.5 |
| 20260902185035 | 59 | 265 | 4.3 | 11.3 | 0.00 | 0.00 | 0.00 | 54 | 1008.4 |
| 20260902184549 | 59 | 296 | 4.3 | 11.3 | 0.00 | 0.00 | 0.00 | 54 | 1008.5 |
| 20260902184034 | 59 | 326 | 5.2 | 9.6 | 0.00 | 0.00 | 0.00 | 54 | 1008.4 |
| 20260902183535 | 59 | 259 | 3.5 | 10.4 | 0.00 | 0.00 | 0.00 | 55 | 1008.4 |
| 20260902183110 | 59 | 196 | 3.5 | 10.4 | 0.00 | 0.00 | 0.00 | 56 | 1008.3 |
| 20260902182536 | 59 | 296 | 5.2 | 10.4 | 0.00 | 0.00 | 0.00 | 58 | 1008.2 |
| 20260902182034 | 59 | 223 | 2.6 | 6.1 | 0.00 | 0.00 | 0.00 | 57 | 1008.3 |
| 20260902181545 | 59 | 282 | 1.7 | 6.1 | 0.00 | 0.00 | 0.00 | 56 | 1008.2 |
| 20260902181032 | 60 | 237 | 2.6 | 6.1 | 0.00 | 0.00 | 0.00 | 56 | 1008.2 |
| 20260902180536 | 60 | 249 | 2.6 | 7.8 | 0.00 | 0.00 | 0.00 | 55 | 1008.3 |
| 20260902180050 | 61 | 252 | 3.5 | 7.8 | 0.00 | 0.00 | 0.00 | 54 | 1008.2 |
| 20260902175532 | 61 | 252 | 3.5 | 7.0 | 0.00 | 0.00 | 0.00 | 54 | 1008.2 |
| 20260902175033 | 61 | 238 | 2.6 | 7.0 | 0.00 | 0.00 | 0.00 | 54 | 1008.1 |
| 20260902174552 | 61 | 214 | 2.6 | 7.8 | 0.00 | 0.00 | 0.00 | 54 | 1008.1 |
| 20260902174034 | 61 | 212 | 3.5 | 8.7 | 0.00 | 0.00 | 0.00 | 53 | 1008.0 |
| 20260902173535 | 62 | 248 | 4.3 | 9.6 | 0.00 | 0.00 | 0.00 | 52 | 1008.0 |
| 20260902173111 | 62 | 229 | 5.2 | 9.6 | 0.00 | 0.00 | 0.00 | 51 | 1008.0 |
| 20260902172533 | 63 | 220 | 5.2 | 10.4 | 0.00 | 0.00 | 0.00 | 51 | 1008.0 |
| 20260902172034 | 63 | 266 | 4.3 | 13.0 | 0.00 | 0.00 | 0.00 | 50 | 1008.0 |
| 20260902171557 | 63 | 248 | 6.1 | 13.0 | 0.00 | 0.00 | 0.00 | 49 | 1008.1 |
| 20260902171032 | 64 | 263 | 6.1 | 13.0 | 0.00 | 0.00 | 0.00 | 49 | 1008.0 |
| 20260902170532 | 64 | 289 | 5.2 | 13.0 | 0.00 | 0.00 | 0.00 | 49 | 1008.1 |
| 20260902170052 | 64 | 279 | 7.0 | 13.0 | 0.00 | 0.00 | 0.00 | 48 | 1008.1 |
| 20260902165535 | 64 | 224 | 3.5 | 9.6 | 0.00 | 0.00 | 0.00 | 48 | 1008.1 |
| 20260902165032 | 64 | 255 | 5.2 | 11.3 | 0.00 | 0.00 | 0.00 | 48 | 1008.0 |
| 20260902164604 | 64 | 238 | 6.1 | 11.3 | 0.00 | 0.00 | 0.00 | 46 | 1008.1 |
| 20260902164034 | 65 | 231 | 4.3 | 10.4 | 0.00 | 0.00 | 0.00 | 46 | 1008.0 |
| 20260902163534 | 65 | 221 | 6.1 | 9.6 | 0.00 | 0.00 | 0.00 | 45 | 1008.0 |
| 20260902163052 | 66 | 231 | 2.6 | 7.8 | 0.00 | 0.00 | 0.00 | 45 | 1008.0 |
| 20260902162533 | 66 | 255 | 4.3 | 8.7 | 0.00 | 0.00 | 0.00 | 45 | 1007.9 |
| 20260902162034 | 66 | 243 | 4.3 | 10.4 | 0.00 | 0.00 | 0.00 | 43 | 1008.0 |
| 20260902161550 | 66 | 229 | 4.3 | 10.4 | 0.00 | 0.00 | 0.00 | 44 | 1007.9 |
| 20260902161031 | 66 | 228 | 5.2 | 10.4 | 0.00 | 0.00 | 0.00 | 43 | 1007.9 |
| 20260902160531 | 67 | 293 | 2.6 | 9.6 | 0.00 | 0.00 | 0.00 | 43 | 1007.9 |
| 20260902160047 | 67 | 259 | 4.3 | 9.6 | 0.00 | 0.00 | 0.00 | 42 | 1008.0 |
| 20260902155535 | 67 | 297 | 3.5 | 9.6 | 0.00 | 0.00 | 0.00 | 43 | 1008.0 |
| 20260902155032 | 67 | 300 | 4.3 | 9.6 | 0.00 | 0.00 | 0.00 | 43 | 1008.0 |
| 20260902154553 | 66 | 311 | 3.5 | 9.6 | 0.00 | 0.00 | 0.00 | 42 | 1007.9 |
| 20260902154034 | 67 | 289 | 5.2 | 10.4 | 0.00 | 0.00 | 0.00 | 42 | 1008.1 |
| 20260902153531 | 67 | 357 | 5.2 | 11.3 | 0.00 | 0.00 | 0.00 | 43 | 1007.9 |
| 20260902153059 | 67 | 245 | 7.0 | 13.0 | 0.00 | 0.00 | 0.00 | 42 | 1008.0 |
| 20260902152531 | 67 | 267 | 7.0 | 13.0 | 0.00 | 0.00 | 0.00 | 43 | 1008.0 |
| 20260902152032 | 67 | 269 | 7.0 | 13.0 | 0.00 | 0.00 | 0.00 | 42 | 1007.9 |
| 20260902151545 | 67 | 241 | 8.7 | 13.0 | 0.00 | 0.00 | 0.00 | 41 | 1007.9 |
| 20260902151031 | 68 | 274 | 3.5 | 16.5 | 0.00 | 0.00 | 0.00 | 42 | 1007.9 |
| 20260902150534 | 68 | 250 | 6.1 | 16.5 | 0.00 | 0.00 | 0.00 | 42 | 1008.0 |
| 20260902150055 | 68 | 237 | 8.7 | 13.9 | 0.00 | 0.00 | 0.00 | 41 | 1008.1 |
| 20260902145532 | 68 | 219 | 7.8 | 11.3 | 0.00 | 0.00 | 0.00 | 44 | 1008.0 |
| 20260902145031 | 68 | 257 | 5.2 | 12.2 | 0.00 | 0.00 | 0.00 | 43 | 1008.1 |
| 20260902144551 | 66 | 319 | 6.1 | 13.0 | 0.00 | 0.00 | 0.00 | 43 | 1008.1 |
| 20260902144031 | 66 | 214 | 6.1 | 13.0 | 0.00 | 0.00 | 0.00 | 44 | 1008.1 |
| 20260902143533 | 67 | 237 | 7.0 | 13.0 | 0.00 | 0.00 | 0.00 | 44 | 1008.1 |
| 20260902143048 | 67 | 280 | 5.2 | 14.8 | 0.00 | 0.00 | 0.00 | 43 | 1008.2 |
| 20260902142533 | 66 | 238 | 6.1 | 14.8 | 0.00 | 0.00 | 0.00 | 45 | 1008.2 |
| 20260902142032 | 67 | 246 | 7.8 | 13.9 | 0.00 | 0.00 | 0.00 | 44 | 1008.2 |
| 20260902141544 | 68 | 212 | 7.0 | 12.2 | 0.00 | 0.00 | 0.00 | 43 | 1008.1 |
| 20260902141031 | 67 | 245 | 5.2 | 13.0 | 0.00 | 0.00 | 0.00 | 46 | 1008.2 |
| 20260902140535 | 68 | 322 | 6.1 | 13.0 | 0.00 | 0.00 | 0.00 | 45 | 1008.3 |
| 20260902140053 | 68 | 291 | 5.2 | 11.3 | 0.00 | 0.00 | 0.00 | 45 | 1008.3 |
| 20260902135534 | 67 | 238 | 5.2 | 11.3 | 0.00 | 0.00 | 0.00 | 47 | 1008.2 |
| 20260902135034 | 67 | 288 | 4.3 | 8.7 | 0.00 | 0.00 | 0.00 | 48 | 1008.2 |
| 20260902134550 | 66 | 297 | 4.3 | 10.4 | 0.00 | 0.00 | 0.00 | 50 | 1008.4 |
| 20260902134032 | 65 | 251 | 4.3 | 13.9 | 0.00 | 0.00 | 0.00 | 48 | 1008.3 |
| 20260902133532 | 66 | 262 | 7.0 | 13.9 | 0.00 | 0.00 | 0.00 | 47 | 1008.5 |
| 20260902133101 | 67 | 247 | 6.1 | 13.9 | 0.00 | 0.00 | 0.00 | 47 | 1008.5 |
| 20260902132534 | 67 | 201 | 8.7 | 13.9 | 0.00 | 0.00 | 0.00 | 46 | 1008.4 |
| 20260902132032 | 67 | 289 | 8.7 | 13.9 | 0.00 | 0.00 | 0.00 | 47 | 1008.7 |
| 20260902131553 | 67 | 228 | 7.0 | 13.0 | 0.00 | 0.00 | 0.00 | 49 | 1008.6 |
| 20260902131033 | 67 | 233 | 5.2 | 15.6 | 0.00 | 0.00 | 0.00 | 48 | 1008.5 |
| 20260902130536 | 67 | 239 | 9.6 | 15.6 | 0.00 | 0.00 | 0.00 | 50 | 1008.7 |
| 20260902130049 | 66 | 258 | 4.3 | 14.8 | 0.00 | 0.00 | 0.00 | 51 | 1008.7 |
| 20260902125532 | 66 | 297 | 5.2 | 12.2 | 0.00 | 0.00 | 0.00 | 50 | 1008.5 |
| 20260902125032 | 67 | 239 | 7.8 | 13.0 | 0.00 | 0.00 | 0.00 | 52 | 1008.6 |
| 20260902124547 | 66 | 251 | 5.2 | 13.0 | 0.00 | 0.00 | 0.00 | 51 | 1008.7 |
| 20260902124034 | 66 | 236 | 7.8 | 13.0 | 0.00 | 0.00 | 0.00 | 52 | 1008.7 |
| 20260902123531 | 66 | 243 | 7.8 | 14.8 | 0.00 | 0.00 | 0.00 | 53 | 1008.6 |
| 20260902123056 | 66 | 236 | 9.6 | 14.8 | 0.00 | 0.00 | 0.00 | 51 | 1008.8 |
| 20260902122531 | 67 | 235 | 7.8 | 14.8 | 0.00 | 0.00 | 0.00 | 51 | 1008.5 |
| 20260902122033 | 66 | 244 | 9.6 | 14.8 | 0.00 | 0.00 | 0.00 | 51 | 1008.6 |
| 20260902121549 | 68 | 238 | 6.1 | 13.9 | 0.00 | 0.00 | 0.00 | 50 | 1008.6 |
| 20260902121034 | 65 | 250 | 5.2 | 10.4 | 0.00 | 0.00 | 0.00 | 54 | 1008.7 |
| 20260902120532 | 65 | 250 | 4.3 | 11.3 | 0.00 | 0.00 | 0.00 | 52 | 1008.7 |
| 20260902120053 | 66 | 240 | 5.2 | 13.0 | 0.00 | 0.00 | 0.00 | 50 | 1008.6 |
| 20260902115532 | 67 | 357 | 6.1 | 13.9 | 0.00 | 0.00 | 0.00 | 52 | 1008.6 |
| 20260902115034 | 66 | 243 | 7.8 | 19.1 | 0.00 | 0.00 | 0.00 | 49 | 1008.6 |
| 20260902114553 | 67 | 257 | 11.3 | 19.1 | 0.00 | 0.00 | 0.00 | 50 | 1008.5 |
| 20260902114034 | 68 | 237 | 7.0 | 13.9 | 0.00 | 0.00 | 0.00 | 49 | 1008.6 |
| 20260902113534 | 67 | 236 | 9.6 | 13.9 | 0.00 | 0.00 | 0.00 | 51 | 1008.7 |
| 20260902113053 | 66 | 264 | 5.2 | 15.6 | 0.00 | 0.00 | 0.00 | 52 | 1008.6 |
| 20260902112534 | 66 | 323 | 9.6 | 15.6 | 0.00 | 0.00 | 0.00 | 51 | 1008.7 |
| 20260902112031 | 67 | 229 | 7.0 | 13.0 | 0.00 | 0.00 | 0.00 | 52 | 1008.7 |
| 20260902111547 | 66 | 257 | 6.1 | 13.0 | 0.00 | 0.00 | 0.00 | 53 | 1008.8 |
| 20260902111032 | 65 | 218 | 5.2 | 17.4 | 0.00 | 0.00 | 0.00 | 53 | 1008.9 |
| 20260902110534 | 65 | 250 | 10.4 | 17.4 | 0.00 | 0.00 | 0.00 | 54 | 1008.9 |
| 20260902110050 | 65 | 218 | 5.2 | 12.2 | 0.00 | 0.00 | 0.00 | 54 | 1008.8 |
| 20260902105535 | 64 | 255 | 5.2 | 10.4 | 0.00 | 0.00 | 0.00 | 54 | 1008.9 |
| 20260902105034 | 64 | 283 | 3.5 | 13.0 | 0.00 | 0.00 | 0.00 | 55 | 1009.0 |
| 20260902104610 | 64 | 304 | 6.1 | 16.5 | 0.00 | 0.00 | 0.00 | 54 | 1009.0 |
| 20260902104036 | 65 | 252 | 8.7 | 17.4 | 0.00 | 0.00 | 0.00 | 53 | 1009.0 |
| 20260902103532 | 65 | 231 | 8.7 | 17.4 | 0.00 | 0.00 | 0.00 | 53 | 1008.9 |
| 20260902103106 | 65 | 225 | 7.0 | 17.4 | 0.00 | 0.00 | 0.00 | 54 | 1008.9 |
| 20260902102534 | 64 | 256 | 7.8 | 13.0 | 0.00 | 0.00 | 0.00 | 55 | 1009.0 |
| 20260902102031 | 64 | 248 | 5.2 | 14.8 | 0.00 | 0.00 | 0.00 | 55 | 1009.0 |
| 20260902101554 | 63 | 255 | 7.8 | 14.8 | 0.00 | 0.00 | 0.00 | 54 | 1009.0 |
| 20260902101032 | 63 | 250 | 7.8 | 13.0 | 0.00 | 0.00 | 0.00 | 56 | 1009.0 |
| 20260902100532 | 64 | 224 | 6.1 | 13.0 | 0.00 | 0.00 | 0.00 | 55 | 1009.0 |
| 20260902100044 | 63 | 308 | 7.8 | 13.0 | 0.00 | 0.00 | 0.00 | 54 | 1009.0 |
| 20260902095534 | 64 | 294 | 7.8 | 16.5 | 0.00 | 0.00 | 0.00 | 54 | 1009.0 |
| 20260902095032 | 63 | 232 | 8.7 | 16.5 | 0.00 | 0.00 | 0.00 | 55 | 1009.1 |
| 20260902094552 | 63 | 252 | 7.0 | 13.0 | 0.00 | 0.00 | 0.00 | 57 | 1009.0 |
| 20260902094031 | 63 | 323 | 4.3 | 14.8 | 0.00 | 0.00 | 0.00 | 55 | 1009.1 |
| 20260902093534 | 63 | 236 | 8.7 | 14.8 | 0.00 | 0.00 | 0.00 | 54 | 1009.0 |
| 20260902093047 | 63 | 224 | 8.7 | 14.8 | 0.00 | 0.00 | 0.00 | 55 | 1009.1 |
| 20260902092532 | 63 | 221 | 5.2 | 13.0 | 0.00 | 0.00 | 0.00 | 55 | 1009.1 |
| 20260902092034 | 63 | 268 | 4.3 | 14.8 | 0.00 | 0.00 | 0.00 | 57 | 1009.0 |
| 20260902091547 | 62 | 289 | 6.1 | 14.8 | 0.00 | 0.00 | 0.00 | 58 | 1009.1 |
| 20260902091035 | 63 | 250 | 7.8 | 12.2 | 0.00 | 0.00 | 0.00 | 56 | 1009.2 |
| 20260902090535 | 63 | 214 | 3.5 | 10.4 | 0.00 | 0.00 | 0.00 | 59 | 1009.2 |
| 20260902090051 | 62 | 206 | 5.2 | 9.6 | 0.00 | 0.00 | 0.00 | 58 | 1009.2 |
| 20260902085534 | 62 | 263 | 6.1 | 10.4 | 0.00 | 0.00 | 0.00 | 59 | 1009.2 |
| 20260902085034 | 61 | 219 | 3.5 | 15.6 | 0.00 | 0.00 | 0.00 | 60 | 1009.2 |
| 20260902084554 | 61 | 258 | 7.8 | 15.6 | 0.00 | 0.00 | 0.00 | 57 | 1009.3 |
| 20260902084032 | 61 | 219 | 6.1 | 11.3 | 0.00 | 0.00 | 0.00 | 58 | 1009.2 |
| 20260902083533 | 61 | 292 | 6.1 | 11.3 | 0.00 | 0.00 | 0.00 | 58 | 1009.1 |
| 20260902083051 | 61 | 278 | 5.2 | 9.6 | 0.00 | 0.00 | 0.00 | 58 | 1009.1 |
| 20260902082531 | 61 | 236 | 4.3 | 8.7 | 0.00 | 0.00 | 0.00 | 61 | 1009.1 |
| 20260902082031 | 60 | 252 | 5.2 | 8.7 | 0.00 | 0.00 | 0.00 | 62 | 1009.1 |
| 20260902081552 | 60 | 218 | 5.2 | 10.4 | 0.00 | 0.00 | 0.00 | 60 | 1009.1 |
| 20260902081031 | 60 | 212 | 5.2 | 10.4 | 0.00 | 0.00 | 0.00 | 62 | 1009.0 |
| 20260902080531 | 60 | 244 | 7.0 | 10.4 | 0.00 | 0.00 | 0.00 | 61 | 1009.1 |
| 20260902080050 | 59 | 229 | 4.3 | 8.7 | 0.00 | 0.00 | 0.00 | 65 | 1009.1 |
| 20260902075531 | 59 | 260 | 5.2 | 8.7 | 0.00 | 0.00 | 0.00 | 66 | 1009.1 |
| 20260902075032 | 59 | 303 | 3.5 | 10.4 | 0.00 | 0.00 | 0.00 | 65 | 1009.0 |